Location: Bourg-d�Oueil
(42.8588°N, 0.4991°E)
Time: 16:28:01
(UTC+00:00)

Cosmos 1892 Rocket - Pass Details

Date: 16 June 2021
Orbit: 605 x 634 km, 82.5° (Epoch: 04 August)

Event Time Altitude Azimuth Distance (km) Brightness Sun altitude
Exits shadow 23:49:26 36° 263° (W) 992 4.5 -23.7°
Maximum altitude 23:50:04 38° 284° (WNW) 956 4.6 -23.7°
Drops below altitude 10° 23:54:13 10° 353° (N) 2,010 7.3 -23.8°
Sets 23:56:37 0° 1° (N) 2,926 8.5 -23.8°
